[Iaude] MPEC S217: 2023 SP6 [a=1.61,e=0.59,i=7.0,H=28.0]
    mpec at marsden.cfa.harvard.edu 
    mpec at marsden.cfa.harvard.edu
       
    Mon Sep 25 22:20:22 EDT 2023
    
    
  
M.P.E.C. 2023-S217                           Issued 2023 September 26, 02:18 UT
     The Minor Planet Electronic Circulars contain information on unusual
         minor planets, routine data on comets and natural satellites,
         and occasional editorial announcements.  They are published
    on behalf of Division F of the International Astronomical Union by the
          Minor Planet Center, Smithsonian Astrophysical Observatory,
                          Cambridge, MA 02138, U.S.A.
			  
             Prepared using the Tamkin Foundation Computer Network
                              MPC at CFA.HARVARD.EDU
            URL https://www.minorplanetcenter.net/    ISSN 1523-6714
                                    2023 SP6                                    
Observations:
     K23S06P*1C2023 09 25.23029823 25 59.034+24 30 15.73         20.66GVES217G96
     K23S06P 1C2023 09 25.23547823 25 54.545+24 32 28.50         19.23GVES217G96
     K23S06P 1C2023 09 25.24065023 25 50.009+24 34 41.45         19.81GVES217G96
     K23S06P 1C2023 09 25.24582723 25 45.332+24 36 55.58         20.56GVES217G96
     K23S06P  C2023 09 25.27601823 25 15.798+24 49 52.85         20.1 GVES217H01
     K23S06P  C2023 09 25.27968923 25 12.392+24 51 30.19         20.0 GVES217H01
     K23S06P  C2023 09 25.29030423 25 02.442+24 56 13.82         21.1 GVES217H01
     K23S06P  C2023 09 25.29938323 24 53.856+25 00 18.27         19.7 GVES217H01
     K23S06P KC2023 09 25.36382123 23 52.375+25 30 34.92         19.58GVES217I52
     K23S06P KC2023 09 25.36506923 23 51.119+25 31 10.74         19.74GVES217I52
     K23S06P KC2023 09 25.36568623 23 50.489+25 31 28.24         20.10GVES217I52
     K23S06P KC2023 09 25.79867923 16 25.921+30 17 09.65         19.2 GVES217K63
     K23S06P KC2023 09 25.80430323 16 15.850+30 22 21.80         20.5 GVES217K63
     K23S06P KC2023 09 25.80466223 16 12.44 +30 22 27.1          18.9 GXES217595
     K23S06P KC2023 09 25.82271823 15 38.98 +30 39 23.9          18.8 GXES217595
     K23S06P KB2023 09 25.82928123 15 35.06 +30 45 13.0          19.9 GVES217I93
     K23S06P KB2023 09 25.83278423 15 28.39 +30 48 36.7          19.4 GVES217I93
     K23S06P KB2023 09 25.83625423 15 21.77 +30 51 58.8          20.1 GVES217I93
     K23S06P IC2023 09 25.84064123 15 04.24 +30 56 40.8          18.7 GXES217595
     K23S06P KC2023 09 25.85531623 14 45.30 +31 11 01.0          18.8 GXES217958
     K23S06P KC2023 09 25.85957923 14 36.60 +31 15 17.8          18.6 GXES217958
     K23S06P KC2023 09 25.86143623 14 25.25 +31 17 13.3          19.3 GVES217203
     K23S06P KC2023 09 25.86157523 14 21.67 +31 17 34.8          19.3 GVES217L01
     K23S06P KC2023 09 25.86271323 14 19.25 +31 18 43.6          19.2 GVES217L01
     K23S06P KC2023 09 25.86383923 14 27.87 +31 19 36.3          19.4 GXES217958
     K23S06P KC2023 09 25.86385023 14 16.88 +31 19 52.4          19.4 GVES217L01
     K23S06P KC2023 09 25.86498723 14 14.45 +31 21 01.3          19.5 GVES217L01
     K23S06P KC2023 09 25.86612523 14 12.10 +31 22 10.0          19.4 GVES217L01
     K23S06P KC2023 09 25.88518123 13 34.50 +31 41 37.8                VES217203
     K23S06P KC2023 09 25.88667223 13 31.36 +31 43 06.4          19.4 GVES217204
     K23S06P KC2023 09 25.89088823 13 22.03 +31 47 32.5                VES217204
     K23S06P KC2023 09 25.89776923 13 06.63 +31 54 50.5                VES217204
     K23S06P KC2023 09 25.90125123 12 58.73 +31 58 34.1                VES217204
     K23S06P 1C2023 09 25.92380 23 11 41.64 +32 22 43.7          18.9 GVES217C40
     K23S06P 1C2023 09 25.92757 23 11 32.65 +32 26 53.1          19.2 GVES217C40
     K23S06P 1C2023 09 25.93130 23 11 23.66 +32 30 58.8          19.3 GVES217C40
Observer details:
203 GiaGa Observatory.  Observers S. Foglia, G. Galli.  Measurer G. Galli.
    0.36-m f/5.76 Schmidt-Cassegrain + CCD.
204 Schiaparelli Observatory.  Observers L. Buzzi, G. Galli.  0.84-m f/3.5
    reflector + CCD.
595 Farra d'Isonzo.  Observers E. Amodeo, S. Manca, E. Pettarin.  Measurer E.
    Pettarin.  0.61-m f/4.5 reflector + CCD.
958 Observatoire de Dax.  Observers P. Dupouy, J. B. de Vanssay.  Measurer P.
    Dupouy.  0.43-m f/2.7 Reflector + CCD.
C40 Kuban State University Astrophysical Observatory.  Observers A. Ivanov, A.
    Barcov, V. Ivanov, V. Lysenko, N. Yakovenko, N. Ivanova, N. Gorbunov, G.
    Kurbatov, P. Shchukin, V. Roshchupko.  Measurer A. Ivanov.  0.51-m f/8
    reflector + CCD.
G96 Mt. Lemmon Survey.  Observer R. A. Kowalski.  Measurers E. J. Christensen,
    D. Fay, J. B. Fazekas, D. C. Fuls, A. R. Gibbs, A. D. Grauer, H. Groeller,
    J. K. Hogan, R. A. Kowalski, S. M. Larson, G. J. Leonard, D. Rankin, R. L.
    Seaman, A. Serrano, F. C. Shelly, K. W. Wierzchos.  1.5-m reflector + 10K
    CCD.
H01 Magdalena Ridge Observatory, Socorro.  Observers W. H. Ryan, E. V. Ryan.
    Measurer W. H. Ryan.  2.4-m f/8.9 Ritchey-Chretien + CCD.
I52 Steward Observatory, Mt. Lemmon Station.  Observer A. Serrano.  Measurers
    E. J. Christensen, D. Fay, J. B. Fazekas, D. C. Fuls, A. R. Gibbs, A. D.
    Grauer, H. Groeller, J. K. Hogan, R. A. Kowalski, S. M. Larson, G. J.
    Leonard, D. Rankin, R. L. Seaman, A. Serrano, F. C. Shelly, K. W.
    Wierzchos.  1.0-m prime focus + CCD.
I93 St Pardon de Conques.  Observer F. Losse.  0.40-m f/3.7 reflector + CMO.
K63 G. Pascoli Observatory, Castelvecchio Pascoli.  Observer R. Bacci.  0.41-m
    f/3.75 0.41m f/3.2  Newton + CCD.
L01 Visnjan Observatory, Tican.  Observers K. Korlevic, L. Poropat, G.
    Kervina.  Measurer K. Korlevic.  1.0-m f/2.9 reflector + CCD.
Orbital elements:
2023 SP6                                                 Earth MOID = 0.0038 AU
Epoch 2023 Sept. 13.0 TT = JDT 2460200.5                Veres                   
M 328.91396              (2000.0)            P               Q                  
n   0.48460847     Peri.  263.48389     +0.02838594     -0.99954169             
a   1.6052477      Node   184.92633     +0.95869890     +0.03020228             
e   0.5874952      Incl.    7.03581     +0.28300293     -0.00205636             
P   2.03           H   28.02          G   0.15           U   7                  
Residuals in seconds of arc
230925 G96  0.5-  0.1-    230925 K63  1.7+  3.2+    230925 958  0.1+  1.0-
230925 G96  0.0   0.0     230925 595  0.7-  0.2-    230925 L01  0.1-  0.1-
230925 G96  0.3+  0.1-    230925 595  0.3-  0.0     230925 L01  0.6-  0.2-
230925 G96  0.7-  0.3+    230925 I93  0.1-  0.0     230925 L01  0.1+  0.8-
230925 H01  0.0   0.2+    230925 I93  0.6-  0.2+    230925 203  1.0-  0.3+
230925 H01  0.0   0.1+    230925 I93  0.6-  0.4-    230925 204  0.5-  0.0
230925 H01  0.0   0.3+    230925 595  0.2+  0.6+    230925 204  0.5-  0.1+
230925 H01  0.1+  0.1+    230925 958  0.8+  1.1+    230925 204  0.3-  0.1+
230925 I52  0.1+  0.1+    230925 958  0.1+  0.0     230925 204  0.3-  0.3+
230925 I52  0.2+  0.0     230925 203  0.2-  0.0     230925 C40  0.6-  1.2-
230925 I52  0.1+  0.2-    230925 L01  0.2+  0.1+    230925 C40  0.1+  0.6+
230925 K63  1.7+  2.6+    230925 L01  0.3-  0.0     230925 C40  0.4+  0.1-
Ephemeris:
2023 SP6                 a,e,i = 1.61, 0.59, 7                   q = 0.6622
Date    TT    R. A. (2000) Decl.     Delta      r    Elong.  Phase     V
2023 08 27    23 40 44.7 +11 21 21   0.3226  1.3011   150.5    22.5    27.2
...
2023 09 11    23 42 17.3 +13 12 06   0.1588  1.1580   160.7    16.7    25.2
...
2023 09 19    23 40 25.4 +14 52 14   0.07783 1.0796   163.3    15.5    23.5
...
2023 09 25    23 28 07.1 +23 05 37   0.01902 1.0205   155.7    23.8    20.6
2023 09 26    23 09 12.1 +33 55 41   0.0096081.0106   144.2    35.5    19.4
2023 09 27    14 04 54.7 +57 30 30   0.0038601.0008    63.0   116.8    20.6
...
2023 10 03    11 48 20.6 -09 11 29   0.06005 0.9423    12.6   166.6
...
2023 10 11    11 47 17.6 -10 58 15   0.1409  0.8667    19.2   157.8    33.7
...
2023 10 26    11 56 34.9 -11 24 16   0.3089  0.7431    30.0   138.0    31.4
M. P. C. Staff               (C) Copyright 2023 MPC           M.P.E.C. 2023-S217
    
    
More information about the Iaude
mailing list